Location: *
(57.8420°S, 159.8600°W)
Time: 05:19:56
(UTC+00:00)

Cosmos 2237 Rocket - Pass Details

Date: 18 May 2021
Orbit: 836 x 848 km, 71.0° (Epoch: 20 June)

Event Time Altitude Azimuth Distance (km) Brightness Sun altitude
Rises 04:12:50 0° 351° (N) 3,408 5.7 -13.5°
Reaches altitude 10° 04:15:21 10° 357° (N) 2,482 4.9 -13.8°
Maximum altitude 04:20:44 44° 67° (ENE) 1,174 2.6 -14.5°
Enters shadow 04:24:33 19° 130° (SE) 1,958 3.6 -15.0°
